Logan, UT

12:40 AM MST on December 14, 2019 (GMT -0700)
Logan-Cache

Weather History for KLGU - October, 2019

Change the Weather History Date:

Wednesday, October 9, 2019

  Actual Average Record
Temperature  
Mean Temperature 39 °F -  
Max Temperature 50 °F 65 °F 82 °F (2003)
Min Temperature 28 °F 35 °F 24 °F (1990)
Degree Days  
Heating Degree Days 26    
Moisture  
Dew Point 26 °F    
Average Humidity 56    
Maximum Humidity 82    
Minimum Humidity 28    
Precipitation  
Precipitation 0.00 in - - ()
Sea Level Pressure  
Sea Level Pressure 29.86 in    
Wind  
Wind Speed 10 mph ()    
Max Wind Speed 23 mph    
Max Gust Speed 33 mph    
Visibility 10.0 miles    
Events Rain    
Averages and records for this station are not official NWS values.
T = Trace of Precipitation, MM = Missing Value Source: Averaged Metar Reports

Daily Weather History Graph

Daily Weather History Graph

Search for Another Location

Airport or City:

Astronomy

Oct. 09, 2019 Rise Set
Actual Time 7:32 AM MDT 6:55 PM MDT
Civil Twilight 7:04 AM MDT 7:23 PM MDT
Nautical Twilight 6:32 AM MDT 7:55 PM MDT
Astronomical Twilight 6:00 AM MDT 8:28 PM MDT
Moon 5:34 PM MDT (10/9) 3:17 AM MDT (10/9)
Length of Visible Light 12h 18m
Length of Day
11h 23m
Waxing Gibbous, 85% of the Moon is Illuminated
Oct 9
Waxing Gibbous
Oct 13
Full
Oct 21
Last Quarter
Oct 27
New
Nov 4
First Quarter

Hourly Weather History & Observations

Time (MDT) Temp. Windchill Dew Point Humidity Pressure Visibility Wind Dir Wind Speed Gust Speed Precip Events Conditions
12:51 AM 48.9 °F - 32.0 °F 52% 29.57 in 10.0 mi East 3.5 mph - N/A   Clear
1:51 AM 44.1 °F 40.8 °F 34.0 °F 68% 29.54 in 10.0 mi SE 5.8 mph - N/A   Clear
2:51 AM 39.9 °F 37.8 °F 34.0 °F 79% 29.54 in 10.0 mi Variable 3.5 mph - N/A   Clear
3:51 AM 44.1 °F 38.1 °F 33.1 °F 65% 29.52 in 10.0 mi NE 11.5 mph - N/A   Clear
4:51 AM 48.9 °F - 34.0 °F 56% 29.55 in 10.0 mi North 12.7 mph - N/A   Clear
5:51 AM 46.9 °F - 34.0 °F 61% 29.60 in 10.0 mi North 16.1 mph - N/A   Clear
6:51 AM 45.0 °F 36.6 °F 30.9 °F 58% 29.67 in 10.0 mi North 21.9 mph 33.4 mph N/A   Overcast
7:51 AM 44.1 °F 35.2 °F 28.9 °F 55% 29.74 in 10.0 mi NNE 23.0 mph 29.9 mph N/A   Scattered Clouds
8:51 AM 44.1 °F 37.1 °F 28.9 °F 55% 29.78 in 10.0 mi North 15.0 mph - N/A   Overcast
9:51 AM 42.1 °F 35.7 °F 30.0 °F 62% 29.86 in 10.0 mi North 11.5 mph - 0.00 in Rain Light Rain
10:51 AM 39.0 °F - 30.9 °F 73% 29.89 in 10.0 mi Calm Calm - 0.00 in   Overcast
11:51 AM 41.0 °F 34.7 °F 27.0 °F 57% 29.91 in 10.0 mi NW 10.4 mph - N/A   Overcast
12:51 PM 45.0 °F 38.5 °F 21.0 °F 39% 29.90 in 10.0 mi WNW 13.8 mph 18.4 mph N/A   Mostly Cloudy
1:51 PM 43.0 °F 36.0 °F 14.0 °F 31% 29.93 in 10.0 mi West 13.8 mph - N/A   Overcast
2:51 PM 46.0 °F 39.3 °F 14.0 °F 28% 29.93 in 10.0 mi WNW 16.1 mph 21.9 mph N/A   Mostly Cloudy
3:44 PM 43.0 °F 34.5 °F 12.9 °F 30% 29.96 in 10.0 mi WNW 19.6 mph 23.0 mph N/A   Mostly Cloudy
3:51 PM 44.1 °F 36.2 °F 12.9 °F 28% 29.94 in 10.0 mi NW 18.4 mph 25.3 mph N/A   Mostly Cloudy
4:51 PM 44.1 °F 36.5 °F 17.1 °F 34% 29.94 in 10.0 mi West 17.3 mph - N/A   Clear
5:51 PM 42.1 °F 34.9 °F 19.9 °F 41% 29.99 in 10.0 mi NW 13.8 mph - N/A   Mostly Cloudy
6:51 PM 37.0 °F 28.5 °F 26.1 °F 65% 30.05 in 10.0 mi NE 13.8 mph - N/A   Overcast
7:51 PM 37.0 °F 32.4 °F 25.0 °F 62% 30.07 in 10.0 mi NNE 5.8 mph - N/A   Overcast
8:51 PM 36.0 °F 33.3 °F 26.1 °F 67% 30.09 in 10.0 mi West 3.5 mph - N/A   Overcast
9:51 PM 35.1 °F 27.4 °F 28.0 °F 76% 30.12 in 10.0 mi NW 10.4 mph - N/A   Overcast
10:51 PM 30.9 °F 20.2 °F 25.0 °F 79% 30.17 in 10.0 mi North 15.0 mph - N/A   Overcast
11:51 PM 28.9 °F 19.8 °F 24.1 °F 82% 30.19 in 10.0 mi North 10.4 mph - N/A   Mostly Cloudy